"TOA5","AWS1","CR1000","7964","CR1000.Std.14","CPU:AWS1_114.CR1","64363","TBL110"
"TIMESTAMP","RECORD","Wind_spd_WVc(1)","Wind_spd_WVc(2)","Air_Temp_Avg","Humidity_Avg","SW_upper_Wm2_Avg","Rain_Tot","Press_Avg","Issui_Tot","Depth_cm","SR50A_Raw","Quality","Ground_Temp_Avg(1)","Ground_Temp_Avg(2)","SW_lower_Wm2_Avg","Albedo_Avg","SWC_per(1)","SWC_per(2)","Period(1)","Period(2)"
"TS","RN","","","","","","","","","","","","","","","","","","",""
"","","WVc","WVc","Avg","Avg","Avg","Tot","Avg","Tot","Smp","Smp","Smp","Avg","Avg","Avg","Avg","Smp","Smp","Smp","Smp"
"2017-02-07 00:00:00",274093,1.753,289.6,-7.592,91.8,0.2361298,0,856.6251,0,93,2.282,187,1.277,2.014,0,0,52.83,60.98,33.99,35.9
"2017-02-07 00:10:00",274094,1.25,293,-7.639,92,0.2361307,0,856.6432,0,93,2.282,192,1.278,2.017,0,0,52.83,60.98,33.99,35.9
"2017-02-07 00:20:00",274095,1.567,304,-7.632,90.7,0.04722681,0,856.7823,0,92.9,2.283,191,1.284,2.023,0,0,52.83,60.98,33.99,35.9
"2017-02-07 00:30:00",274096,1.187,285.1,-7.682,92.6,0,0,856.6952,0,92.9,2.284,174,1.287,2.031,0,0,52.83,60.98,33.99,35.9
"2017-02-07 00:40:00",274097,1.742,294,-7.738,93.3,0,0,856.7415,0,93.5,2.278,192,1.288,2.042,0,0,52.83,60.98,33.99,35.9
"2017-02-07 00:50:00",274098,1.167,285.2,-7.72,92.5,0,0,856.8866,0,95,2.262,402,1.288,2.051,0,0,52.83,60.98,33.99,35.9
"2017-02-07 01:00:00",274099,1.351,312.9,-7.776,92.9,0,0,857.0494,0.5,93.4,2.279,187,1.289,2.054,0,0,52.83,60.98,33.99,35.9
"2017-02-07 01:10:00",274100,1.056,300.9,-7.803,93.4,0.01967829,0,857.0769,0,93.8,2.275,189,1.29,2.035,0,0,52.83,60.98,33.99,35.9
"2017-02-07 01:20:00",274101,1.021,291.8,-7.879,93.7,0,0,857.2181,0,93.7,2.276,196,1.295,2.023,0,0,52.83,60.98,33.99,35.9
"2017-02-07 01:30:00",274102,1.711,284.6,-7.915,93.1,0.2125255,0,857.3911,0,94.1,2.272,191,1.295,2.019,0,0,52.83,60.98,33.99,35.9
"2017-02-07 01:40:00",274103,1.309,300.8,-8,93,0.2085899,0,857.4186,0,94.2,2.272,192,1.301,1.992,0,0,52.83,60.92,33.99,35.89
"2017-02-07 01:50:00",274104,2.157,298.1,-8.01,92.8,0.003935658,0,857.524,0,93.8,2.275,192,1.3,1.992,0,0,52.83,60.98,33.99,35.9
"2017-02-07 02:00:00",274105,1.608,304.8,-8.09,91.3,0.05509922,0,857.697,0,93.7,2.277,192,1.297,1.989,0,0,52.83,60.98,33.99,35.9
"2017-02-07 02:10:00",274106,1.1,286.6,-8.14,91.1,0,0,857.832,0,93.6,2.278,192,1.295,1.986,0,0,52.83,60.98,33.99,35.9
"2017-02-07 02:20:00",274107,1.592,290.1,-8.15,89.9,0,0,857.9079,0,93.3,2.281,175,1.292,1.987,0,0,52.83,60.98,33.99,35.9
"2017-02-07 02:30:00",274108,1.029,289.4,-8.19,89.8,0,0,857.8868,0,93.2,2.283,171,1.29,1.992,0,0,52.83,60.98,33.99,35.9
"2017-02-07 02:40:00",274109,1.368,296.4,-8.22,90.9,0,0,858.0197,0,93.2,2.283,177,1.292,1.987,0,0,52.83,60.98,33.99,35.9
"2017-02-07 02:50:00",274110,0.781,295.5,-8.22,91,0,0,858.0956,0.5,92.9,2.286,192,1.297,1.987,0,0,52.83,60.98,33.99,35.9
"2017-02-07 03:00:00",274111,0.964,257,-8.28,92.2,0,0,858.1588,0,93.4,2.281,188,1.29,1.984,0,0,52.83,60.98,33.99,35.9
"2017-02-07 03:10:00",274112,1.208,284.6,-8.31,91.2,0,0,858.1567,0,94,2.275,188,1.299,1.987,0,0,52.83,60.98,33.99,35.9
"2017-02-07 03:20:00",274113,1.087,243.6,-8.39,90.9,0.1849759,0,857.988,0,93.8,2.277,188,1.302,1.985,0,0,52.83,60.98,33.99,35.9
"2017-02-07 03:30:00",274114,1.087,255.9,-8.54,90.1,0.2361395,0,858.1609,0,93.2,2.284,189,1.317,1.981,0,0,52.83,60.98,33.99,35.9
"2017-02-07 03:40:00",274115,0.99,324.4,-8.62,89.8,0.2361395,0,858.1483,0,93.8,2.278,189,1.324,1.987,0,0,52.83,60.98,33.99,35.9
"2017-02-07 03:50:00",274116,1.14,279.5,-8.65,89.5,0.04329224,0,858.1609,0,94,2.276,189,1.306,1.986,0,0,52.83,60.98,33.99,35.9
"2017-02-07 04:00:00",274117,1.144,275.6,-8.65,90.2,0,0,858.4562,0,94.1,2.276,189,1.284,1.984,0,0,52.83,60.98,33.99,35.9
"2017-02-07 04:10:00",274118,1.248,284.2,-8.66,90.4,0,0,858.6461,0,93.6,2.28,216,1.296,1.997,0,0,52.77,60.98,33.98,35.9
"2017-02-07 04:20:00",274119,1.056,270.1,-8.65,90.6,0,0,858.6566,0,93.7,2.279,189,1.299,2.009,0.007589447,0,52.83,60.98,33.99,35.9
"2017-02-07 04:30:00",274120,0.842,297.4,-8.66,90.8,0,0,858.6693,0,94.3,2.273,180,1.285,2.012,0,0,52.83,60.98,33.99,35.9
"2017-02-07 04:40:00",274121,0.912,307,-8.76,89.4,0.06297053,0,858.6355,0,94.3,2.274,176,1.275,2.014,0,0,52.83,60.92,33.99,35.89
"2017-02-07 04:50:00",274122,1.087,271.2,-8.83,89.6,0.03935658,0,858.6249,0,94.2,2.275,171,1.261,2.019,0,0,52.77,60.92,33.98,35.89
"2017-02-07 05:00:00",274123,1.006,277.9,-8.85,90.3,0,0,858.6144,0,93.9,2.278,182,1.269,2.023,0,0,52.77,60.98,33.98,35.9
"2017-02-07 05:10:00",274124,1.856,301.2,-8.91,90.1,0,0,858.663,0.5,94.5,2.272,192,1.246,2.023,0,0,52.83,60.98,33.99,35.9
"2017-02-07 05:20:00",274125,1.488,308.1,-8.9,89.4,0,0,858.8485,0,94.4,2.273,191,1.231,2.022,0,0,52.83,60.98,33.99,35.9
"2017-02-07 05:30:00",274126,1.431,289.7,-8.91,90.5,0,0,858.9266,0,94.2,2.275,192,1.211,2.023,0,0,52.83,60.98,33.99,35.9
"2017-02-07 05:40:00",274127,0.853,282.1,-8.96,91.2,0,0,858.9349,0,94,2.277,185,1.199,2.023,0,0,52.77,60.98,33.98,35.9
"2017-02-07 05:50:00",274128,1.073,298.2,-8.98,91.1,0,0,859.0911,0,93.8,2.28,190,1.195,2.023,0,0,52.77,60.98,33.98,35.9
"2017-02-07 06:00:00",274129,0.748,237.1,-9.01,91,0.007871317,0,858.8654,0,94,2.278,188,1.189,2.02,0,0,52.83,60.92,33.99,35.89
"2017-02-07 06:10:00",274130,1.285,256.7,-9.12,91.2,0.1298767,0,858.7452,0,94.7,2.271,191,1.188,2.013,0,0,52.77,60.92,33.98,35.89
"2017-02-07 06:20:00",274131,0.969,265.3,-9.21,91.7,0.003935658,0,858.9708,0,94.8,2.271,191,1.162,2.021,0,0,52.83,60.98,33.99,35.9
"2017-02-07 06:30:00",274132,0.952,275.1,-9.26,90,0.1180698,0,859.108,0,94.7,2.272,170,1.159,2.021,0,0,52.77,60.92,33.98,35.89
"2017-02-07 06:40:00",274133,0.922,282.3,-9.32,89.1,0.2361395,0,859.0763,0,94.6,2.273,170,1.16,2.019,0.2846042,1.205,52.83,60.92,33.99,35.89
"2017-02-07 06:50:00",274134,0.981,282.1,-9.35,88.8,0.2361395,0,858.9982,0,94.5,2.274,171,1.167,2.007,1.043549,4.419,52.83,60.92,33.99,35.89
"2017-02-07 07:00:00",274135,1.048,280.2,-9.36,90.6,0.8264883,0,859.1417,0,94.5,2.274,170,1.181,1.984,3.521503,4.636,52.83,60.92,33.99,35.89
"2017-02-07 07:10:00",274136,1.312,289.4,-9.33,90.5,1.483743,0,859.1649,0,94.4,2.275,170,1.18,1.973,6.276473,4.248,52.83,60.92,33.99,35.89
"2017-02-07 07:20:00",274137,1.362,286.8,-9.34,91.3,2.463722,0,859.1712,0,94.4,2.275,178,1.188,1.956,9.896638,4.036,52.77,60.92,33.98,35.89
"2017-02-07 07:30:00",274138,1.062,198.1,-9.35,89.6,5.057321,0,859.1332,0,94.1,2.278,191,1.184,1.983,18.88254,3.738,52.83,60.92,33.99,35.89
"2017-02-07 07:40:00",274139,1.162,229.9,-9.39,89.7,6.241954,0,859.3019,0.5,94.1,2.278,190,1.178,1.976,24.97308,3.979,52.83,60.92,33.99,35.89
"2017-02-07 07:50:00",274140,1.053,278.7,-9.34,89.3,8.796197,0,859.4707,0,94,2.279,189,1.171,1.98,36.18648,4.095,52.77,60.92,33.98,35.89
"2017-02-07 08:00:00",274141,1.199,304.7,-9.26,88.3,10.82306,0,859.7111,0,93.7,2.282,176,1.176,1.971,45.47217,4.184,52.77,60.92,33.98,35.89
"2017-02-07 08:10:00",274142,1.296,298.4,-9.27,89.1,12.92082,0,859.9094,0,94,2.278,204,1.176,1.974,52.73549,4.079,52.77,60.92,33.98,35.89
"2017-02-07 08:20:00",274143,0.774,282,-9.07,88.1,12.37781,0,859.9515,0,94.3,2.276,178,1.194,1.981,51.32052,4.149,52.77,60.92,33.98,35.89
"2017-02-07 08:30:00",274144,1.215,298.6,-9.22,88.2,10.35873,0,860.1498,0,94.4,2.274,177,1.198,1.992,40.94915,3.954,52.77,60.92,33.98,35.89
"2017-02-07 08:40:00",274145,0.539,241.3,-8.87,89.2,26.94753,0,860.1625,0,94.4,2.272,190,1.221,2.015,112.2976,4.165,52.77,60.92,33.98,35.89
"2017-02-07 08:50:00",274146,0.907,246.4,-8.71,87.2,27.25447,0,860.1013,0,94.1,2.276,172,1.273,1.994,112.2177,4.115,52.77,60.92,33.98,35.89
"2017-02-07 09:00:00",274147,0.896,249.9,-8.98,87.3,17.74589,0,860.1962,0.5,94.9,2.269,195,1.279,1.983,70.02028,3.939,52.77,60.92,33.98,35.89
"2017-02-07 09:10:00",274148,0.827,272.4,-8.97,87.4,20.78422,0,860.2996,0,95.1,2.266,185,1.289,1.982,84.09492,4.043,52.83,60.92,33.99,35.89
"2017-02-07 09:20:00",274149,0.665,204.9,-8.83,88.2,23.98785,0,860.3459,0,94.9,2.268,185,1.282,1.99,98.07469,4.089,52.77,60.98,33.98,35.9
"2017-02-07 09:30:00",274150,0.96,280.4,-8.75,87,27.73854,0,860.4641,0,94.1,2.275,177,1.3,1.985,115.3217,4.154,52.77,60.92,33.98,35.89
"2017-02-07 09:40:00",274151,0.807,252.6,-8.53,85.1,35.77122,0,860.4535,0,94,2.275,185,1.291,1.993,151.2805,4.225,52.77,60.92,33.98,35.89
"2017-02-07 09:50:00",274152,1.185,308.8,-8.41,84.3,33.83488,0,860.4852,0,95.4,2.262,191,1.288,2.044,142.1618,4.197,52.77,60.92,33.98,35.89
"2017-02-07 10:00:00",274153,0.967,294.3,-8.54,86.2,33.09891,0,860.5336,0,94.9,2.266,193,1.288,2.029,134.5116,4.058,52.77,60.92,33.98,35.89
"2017-02-07 10:10:00",274154,0.924,304.6,-8.26,85.4,41.23391,0,860.4557,0,95.5,2.259,190,1.28,2.009,172.2578,4.174,52.83,60.92,33.99,35.89
"2017-02-07 10:20:00",274155,0.686,31.88,-8.04,84,37.43583,0,860.4977,0,95.7,2.257,192,1.249,2.022,157.6853,4.209,52.83,60.92,33.99,35.89
"2017-02-07 10:30:00",274156,0.59,337.1,-8.02,85.9,34.52616,0,860.5194,0,94.7,2.265,177,1.236,2.014,147.2977,4.262,52.83,60.92,33.99,35.89
"2017-02-07 10:40:00",274157,0.723,59.04,-7.84,84.3,31.69352,0,860.5423,0,95.2,2.262,192,1.243,1.986,135.112,4.252,52.77,60.92,33.98,35.89
"2017-02-07 10:50:00",274158,0.488,341.8,-7.85,84.5,45.04795,0,860.4139,0,95,2.261,192,1.247,1.954,192.7611,4.266,52.77,60.92,33.98,35.89
"2017-02-07 11:00:00",274159,0.526,45.38,-7.528,84.6,29.15425,0,860.4451,0.5,94.9,2.263,179,1.222,1.975,123.3436,4.231,52.77,60.92,33.98,35.89
"2017-02-07 11:10:00",274160,0.478,347.5,-7.664,86.7,24.09795,0,860.4001,0,94.6,2.267,186,1.205,1.978,101.6309,4.213,52.77,60.92,33.98,35.89
"2017-02-07 11:20:00",274161,0.233,331.4,-7.872,86.8,20.81653,0,860.3768,0,94.2,2.271,193,1.211,1.979,87.80677,4.211,52.77,60.92,33.98,35.89
"2017-02-07 11:30:00",274162,0.834,7.798,-7.785,88.1,24.19606,0,860.3009,0,93.8,2.275,212,1.229,1.978,104.3459,4.315,52.77,60.92,33.98,35.89
"2017-02-07 11:40:00",274163,0.72,10.07,-7.918,86.8,28.41363,0,860.166,0,95.6,2.256,275,1.228,1.978,120.999,4.26,52.77,60.92,33.98,35.89
"2017-02-07 11:50:00",274164,0.604,325.3,-7.684,88.8,23.8695,0,860.1954,0,95.3,2.259,204,1.25,1.976,106.9444,4.475,52.77,60.92,33.98,35.89
"2017-02-07 12:00:00",274165,1.298,302.8,-7.728,86.2,36.54979,0,860.1744,0,96.5,2.248,179,1.276,1.977,162.6584,4.409,52.77,60.92,33.98,35.89
"2017-02-07 12:10:00",274166,1.157,282.8,-7.656,86,49.25763,0,860.0964,0.5,96.4,2.247,170,1.25,1.977,221.0886,4.458,52.77,60.92,33.98,35.89
"2017-02-07 12:20:00",274167,0.723,271.2,-7.206,85.4,35.05066,0,860.0843,0,96.1,2.25,194,1.275,1.951,159.274,4.513,52.83,60.92,33.99,35.89
"2017-02-07 12:30:00",274168,1.237,244.3,-7.583,85.7,29.0459,0,860.079,0,96,2.252,185,1.269,1.928,122.356,4.206,52.77,60.86,33.98,35.88
"2017-02-07 12:40:00",274169,1.053,323.5,-7.796,84.9,44.20607,0,860.1066,0,95.5,2.256,205,1.263,1.921,194.6504,4.304,52.83,60.92,33.99,35.89
"2017-02-07 12:50:00",274170,1.343,304.3,-7.373,81.4,54.00422,0,860.1002,0,96,2.251,175,1.228,1.906,242.995,4.486,52.77,60.92,33.98,35.89
"2017-02-07 13:00:00",274171,0.69,17.64,-7.506,84,40.19176,0,860.1063,0,95.7,2.253,176,1.188,1.878,182.946,4.523,52.77,60.92,33.98,35.89
"2017-02-07 13:10:00",274172,0.624,5.208,-7.189,85.2,47.08389,0,860.2299,0,95.7,2.253,194,1.167,1.88,221.3917,4.7,52.83,60.92,33.99,35.89
"2017-02-07 13:20:00",274173,0.83,316,-7.313,85.7,41.64685,0,860.0558,0,95.5,2.255,176,1.159,1.911,187.6337,4.498,52.83,60.92,33.99,35.89
"2017-02-07 13:30:00",274174,0.992,99.3,-7.453,86.5,20.8763,0,860.0134,0,94.7,2.265,195,1.156,1.918,84.03782,3.999,52.77,60.86,33.98,35.88
"2017-02-07 13:40:00",274175,1.439,299.7,-7.963,85.6,36.79299,0,860.0535,0,96,2.254,172,1.155,1.894,155.4094,4.213,52.77,60.92,33.98,35.89
"2017-02-07 13:50:00",274176,1.564,293.2,-8.05,84.9,43.2981,0,860.0155,0,95.8,2.254,179,1.155,1.887,184.9082,4.269,52.77,60.92,33.98,35.89
"2017-02-07 14:00:00",274177,1.658,270.5,-7.577,83.8,67.2735,0,859.8279,0,95.7,2.254,191,1.155,1.922,272.7379,4.127,52.77,60.92,33.98,35.89
"2017-02-07 14:10:00",274178,1.106,280.5,-7.529,80.7,67.06898,0,859.6866,0,95.9,2.253,191,1.159,1.922,244.0731,3.707,52.77,60.92,33.98,35.89
"2017-02-07 14:20:00",274179,1.165,303.7,-7.687,80.5,50.06674,0,859.9543,0,95.6,2.257,182,1.175,1.891,199.508,4.037,52.77,60.86,33.98,35.88
"2017-02-07 14:30:00",274180,1.609,289.4,-8.12,82.4,37.11546,0,859.9459,0.5,95.6,2.258,174,1.193,1.897,143.4261,3.851,52.77,60.86,33.98,35.88
"2017-02-07 14:40:00",274181,1.058,239.2,-8.29,82.7,28.89948,0,859.929,0,95.6,2.259,174,1.178,1.919,112.725,3.901,52.77,60.92,33.98,35.89
"2017-02-07 14:50:00",274182,1.382,355.5,-8.33,82.3,29.26132,0,860.0323,0,95.5,2.26,190,1.162,1.931,122.7135,4.172,52.77,60.92,33.98,35.89
"2017-02-07 15:00:00",274183,1.299,233.7,-8.06,81.3,39.6483,0,859.7878,0,95.3,2.26,190,1.155,1.932,168.4238,4.239,52.77,60.92,33.98,35.89
"2017-02-07 15:10:00",274184,1.653,272.2,-7.978,82.7,32.7066,0,859.7035,0,95.4,2.26,190,1.156,1.925,140.7526,4.254,52.77,60.92,33.98,35.89
"2017-02-07 15:20:00",274185,0.786,272.3,-8.3,85.8,20.05029,0,859.9227,0,95.2,2.263,192,1.158,1.881,86.1004,4.286,52.83,60.86,33.99,35.88
"2017-02-07 15:30:00",274186,1.391,297.2,-8.58,85.6,18.07201,0,860.1546,0,95.1,2.266,170,1.183,1.859,74.92878,4.134,52.77,60.86,33.98,35.88
"2017-02-07 15:40:00",274187,1.233,249.9,-8.76,86.2,13.72607,0,860.4939,0,95.6,2.261,192,1.197,1.867,55.71024,4.055,52.77,60.86,33.98,35.88
"2017-02-07 15:50:00",274188,1.162,187.7,-8.73,87,16.51848,0,860.5107,0,94.9,2.268,192,1.197,1.885,69.68425,4.199,52.77,60.92,33.98,35.89
"2017-02-07 16:00:00",274189,1.361,265.1,-8.9,83.2,16.97864,0,860.5128,0,95.3,2.264,189,1.193,1.889,71.86473,4.234,52.83,60.92,33.99,35.89
"2017-02-07 16:10:00",274190,1.06,222.9,-9,83.9,10.8904,0,860.4391,0,95.3,2.265,191,1.165,1.889,46.36263,4.258,52.77,60.86,33.98,35.88
"2017-02-07 16:20:00",274191,0.93,239.9,-9.03,87,7.582808,0,860.3717,0,94.9,2.269,174,1.155,1.898,33.21167,4.379,52.77,60.86,33.98,35.88
"2017-02-07 16:30:00",274192,0.962,225.4,-9.18,86.6,6.788635,0,860.4844,0,94.9,2.269,181,1.168,1.928,28.14655,4.139,52.77,60.92,33.98,35.89
"2017-02-07 16:40:00",274193,1.091,289.8,-9.27,84.8,5.860931,0,860.5433,0,94.8,2.271,170,1.19,1.939,23.5713,3.976,52.77,60.86,33.98,35.88
"2017-02-07 16:50:00",274194,1.086,302.7,-9.36,85.1,3.8789,0,860.7128,0,94.7,2.272,170,1.206,1.928,14.92207,3.852,52.77,60.86,33.98,35.88
"2017-02-07 17:00:00",274195,0.769,231.8,-9.37,85.4,2.494277,0,860.5907,0,94.7,2.273,168,1.18,1.927,9.877776,3.961,52.77,60.86,33.98,35.88
"2017-02-07 17:10:00",274196,1.28,264.8,-9.45,86.1,1.219625,0,860.6638,0,94.6,2.274,170,1.193,1.939,3.971678,3.234,52.77,60.86,33.98,35.88
"2017-02-07 17:20:00",274197,1.045,239.8,-9.51,87.6,0.7081745,0,860.5955,0,94.7,2.273,190,1.199,1.956,2.226735,3.144,52.77,60.92,33.98,35.89
"2017-02-07 17:30:00",274198,0.816,203.1,-9.59,88.4,0.3658909,0,860.2648,0,94.7,2.273,178,1.199,1.959,0.9787034,2.877,52.77,60.86,33.98,35.88
"2017-02-07 17:40:00",274199,0.683,215.3,-9.59,87.8,0.2360588,0,860.1321,0,94.7,2.274,170,1.2,1.971,0.1707042,0.723,52.77,60.86,33.98,35.88
"2017-02-07 17:50:00",274200,0.664,244.2,-9.67,87.3,0.2360588,0,860.2122,0,94.7,2.274,170,1.204,1.937,0,0,52.77,60.86,33.98,35.88
"2017-02-07 18:00:00",274201,0.585,238,-9.66,86.6,0.01967157,0,860.3556,0,94.6,2.275,170,1.212,1.898,0,0,52.77,60.86,33.98,35.88
"2017-02-07 18:10:00",274202,0.737,204,-9.64,85.3,0,0,860.3504,0,94.5,2.275,170,1.209,1.898,0,0,52.77,60.86,33.98,35.88
"2017-02-07 18:20:00",274203,0.8,299.2,-9.57,84.5,0,0,860.3634,0,94.4,2.276,170,1.241,1.923,0.1024306,0,52.72,60.86,33.96,35.88
"2017-02-07 18:30:00",274204,1.011,288.6,-9.55,84.4,0,0,860.4895,0,94.4,2.276,174,1.276,1.959,0,0,52.72,60.86,33.96,35.88
"2017-02-07 18:40:00",274205,0.822,271.4,-9.51,84.4,0,0,860.6612,0,94.5,2.275,192,1.308,2,0,0,52.72,60.86,33.96,35.88
"2017-02-07 18:50:00",274206,1.16,244,-9.56,85.4,0,0,860.619,0,94.5,2.275,191,1.321,2.014,0,0,52.72,60.92,33.96,35.89
"2017-02-07 19:00:00",274207,1.388,268.7,-9.58,86.2,0,0,860.64,0,94.4,2.276,192,1.321,2.02,0,0,52.77,60.86,33.98,35.88
"2017-02-07 19:10:00",274208,1.312,282.5,-9.58,85.7,0,0,860.6473,0,94.3,2.278,174,1.278,2.022,0,0,52.72,60.86,33.96,35.88
"2017-02-07 19:20:00",274209,2.088,281.5,-9.69,85.7,0,0,860.5948,0,94.1,2.28,191,1.26,2.018,0,0,52.77,60.86,33.98,35.88
"2017-02-07 19:30:00",274210,1.629,280.6,-9.72,85.6,0.04329224,0,860.4809,0,94.1,2.28,190,1.239,2.02,0,0,52.77,60.86,33.98,35.88
"2017-02-07 19:40:00",274211,1.666,272.6,-9.8,85.3,0.007871317,0,860.3123,0,94,2.282,182,1.188,2.013,0,0,52.77,60.86,33.98,35.88
"2017-02-07 19:50:00",274212,1.302,273.5,-9.91,85,0.07477751,0,860.1773,0,93.9,2.282,183,1.176,1.989,0,0,52.72,60.86,33.96,35.88
"2017-02-07 20:00:00",274213,1.248,262.9,-9.79,84.6,0,0,860.2173,0.5,93.9,2.282,178,1.192,1.939,0.003794723,0,52.72,60.86,33.96,35.88
"2017-02-07 20:10:00",274214,1.206,248.7,-9.67,82.9,0,0,860.4535,0,93.7,2.283,177,1.201,1.924,0.01517889,0,52.72,60.86,33.96,35.88
"2017-02-07 20:20:00",274215,1.411,263.5,-9.62,82.1,0,0,860.5991,0,93.8,2.282,182,1.202,1.907,0,0,52.77,60.86,33.98,35.88
"2017-02-07 20:30:00",274216,1.594,267.1,-9.52,80.7,0,0,860.5463,0,93.7,2.283,190,1.217,1.876,0,0,52.72,60.86,33.96,35.88
"2017-02-07 20:40:00",274217,1.097,261.1,-9.57,81.8,0,0,860.4535,0,93.6,2.284,189,1.214,1.872,0,0,52.72,60.86,33.96,35.88
"2017-02-07 20:50:00",274218,0.922,261.2,-9.6,82.6,0,0,860.5316,0,93.6,2.285,190,1.229,1.886,0,0,52.77,60.86,33.98,35.88
"2017-02-07 21:00:00",274219,1.41,256.7,-9.58,82.1,0,0,860.6644,0,93.6,2.285,190,1.228,1.89,0,0,52.77,60.86,33.98,35.88
"2017-02-07 21:10:00",274220,1.336,257.8,-9.58,82.8,0,0,860.6729,0,93.3,2.287,191,1.23,1.891,0,0,52.72,60.86,33.96,35.88
"2017-02-07 21:20:00",274221,0.721,256.8,-9.58,84.2,0,0,860.5695,0,93.4,2.287,190,1.243,1.905,0,0,52.72,60.86,33.96,35.88
"2017-02-07 21:30:00",274222,0.647,274.8,-9.57,83.9,0,0,860.6265,0,93.3,2.288,192,1.243,1.916,0,0,52.72,60.86,33.96,35.88
"2017-02-07 21:40:00",274223,0.521,255.6,-9.62,84.8,0,0,860.5991,0,93.3,2.288,190,1.244,1.917,0,0,52.77,60.86,33.98,35.88
"2017-02-07 21:50:00",274224,0.393,205,-9.7,85.6,0,0,860.6117,0,93.2,2.289,191,1.249,1.933,0,0,52.77,60.86,33.98,35.88
"2017-02-07 22:00:00",274225,0.569,210.4,-9.68,86.6,0,0,860.5358,0,93.2,2.289,191,1.256,1.938,0,0,52.72,60.86,33.96,35.88
"2017-02-07 22:10:00",274226,0.474,230.9,-9.62,84.9,0,0,860.4324,0,93.2,2.289,192,1.262,1.947,0.01517996,0,52.72,60.8,33.96,35.86
"2017-02-07 22:20:00",274227,0.622,269.9,-9.5,82.9,0,0,860.4704,0,93.1,2.289,190,1.267,1.944,0.07590222,0,52.72,60.8,33.96,35.86
"2017-02-07 22:30:00",274228,0.309,205.3,-9.44,82.5,0,0,860.4324,0,92.9,2.29,189,1.278,1.954,0.007590385,0,52.77,60.8,33.98,35.86
"2017-02-07 22:40:00",274229,0.435,232.3,-9.43,83.3,0,0,860.3228,0,92.9,2.291,190,1.282,1.965,0,0,52.77,60.8,33.98,35.86
"2017-02-07 22:50:00",274230,0.637,254.8,-9.4,82.5,0,0,860.4662,0,93,2.29,190,1.287,1.976,0.07211148,0,52.77,60.86,33.98,35.88
"2017-02-07 23:00:00",274231,1.262,270.9,-9.32,81.3,0,0,860.5505,0,92.9,2.29,191,1.278,1.963,0.05313386,0,52.77,60.8,33.98,35.86
"2017-02-07 23:10:00",274232,1.071,295.5,-9.32,82.1,0,0,860.6876,0,92.9,2.29,191,1.27,1.956,0,0,52.72,60.8,33.96,35.86
"2017-02-07 23:20:00",274233,1.084,264.4,-9.37,83.9,0,0,860.6708,0,92.8,2.292,192,1.279,1.959,0,0,52.72,60.86,33.96,35.88
"2017-02-07 23:30:00",274234,0.789,288.6,-9.37,84.8,0,0,860.6476,0,92.8,2.292,191,1.285,1.96,0,0,52.72,60.8,33.96,35.86
"2017-02-07 23:40:00",274235,0.335,252.2,-9.36,86.1,0,0,860.675,0,92.7,2.293,189,1.288,1.966,0,0,52.72,60.8,33.96,35.86
"2017-02-07 23:50:00",274236,0.361,186,-9.4,87,0,0,860.5105,0,92.6,2.294,192,1.285,1.963,0,0,52.72,60.8,33.96,35.86
